Fairbanks Eiels, AK

5:57 AM AKST on December 13, 2017 (GMT -0900)
Eielson Air Force Base

Weather History for PAEI - April, 2017

Change the Weather History Date:

Friday, April 21, 2017

  Actual Average Record
Temperature  
Mean Temperature 34 °F -  
Max Temperature 48 °F 46 °F 66 °F (1993)
Min Temperature 20 °F 23 °F -6 °F (1961)
Degree Days  
Heating Degree Days 31    
Moisture  
Dew Point 12 °F    
Average Humidity 40    
Maximum Humidity 74    
Minimum Humidity 22    
Precipitation  
Precipitation 0.00 in - - ()
Sea Level Pressure  
Sea Level Pressure 30.29 in    
Wind  
Wind Speed 5 mph (NE)    
Max Wind Speed 15 mph    
Max Gust Speed -    
Visibility 10 miles    
Events      
Averages and records for this station are not official NWS values.
T = Trace of Precipitation, MM = Missing Value Source: NWS Daily Summary

Daily Weather History Graph

Daily Weather History Graph

Search for Another Location

Airport or City:

Trip Planner

Search our weather history database for the weather conditions in past years. The results will help you decide how hot, cold, wet, or windy it might be!

Date:

Astronomy

Apr. 21, 2017 Rise Set
Actual Time 5:50 AM AKDT 9:45 PM AKDT
Civil Twilight 4:49 AM AKDT 10:47 PM AKDT
Nautical Twilight 3:02 AM AKDT 12:40 AM AKDT
Astronomical Twilight Sun does not rise Sun does not rise
Moon 5:34 AM AKDT (4/21) 2:24 PM AKDT (4/21)
Length of Visible Light 17h 58m
Length of Day
15h 54m
Waning Crescent, 26% of the Moon is Illuminated
Apr 21
Waning Crescent
Apr 26
New
May 2
First Quarter
May 10
Full
May 18
Last Quarter

Hourly Weather History & Observations

Time (AKDT) Temp. Windchill Dew Point Humidity Pressure Visibility Wind Dir Wind Speed Gust Speed Precip Events Conditions
12:58 AM 28.9 °F 23.9 °F 12.4 °F 50% 30.29 in 10.0 mi Variable 4.6 mph - N/A   Clear
1:58 AM 28.4 °F 24.6 °F 10.4 °F 47% 30.30 in 10.0 mi Variable 3.5 mph - N/A   Clear
2:58 AM 26.6 °F 21.2 °F 9.9 °F 49% 30.31 in 10.0 mi Variable 4.6 mph - N/A   Clear
3:58 AM 24.8 °F - 13.6 °F 63% 30.32 in 10.0 mi Calm Calm - N/A   Clear
4:58 AM 20.8 °F - 11.5 °F 67% 30.33 in 10.0 mi Calm Calm - N/A   Clear
5:58 AM 20.7 °F - 12.9 °F 72% 30.33 in 10.0 mi Calm Calm - N/A   Clear
6:58 AM 21.7 °F - 14.5 °F 74% 30.34 in 10.0 mi Calm Calm - N/A   Clear
7:58 AM 28.2 °F - 12.9 °F 53% 30.34 in 10.0 mi Calm Calm - N/A   Clear
8:58 AM 30.7 °F - 8.1 °F 39% 30.31 in 10.0 mi Calm Calm - N/A   Clear
9:58 AM 35.1 °F - 10.4 °F 36% 30.31 in 10.0 mi Calm Calm - N/A   Clear
10:58 AM 39.6 °F - 8.8 °F 28% 30.31 in 10.0 mi Calm Calm - N/A   Clear
11:58 AM 41.5 °F 39.6 °F 9.5 °F 27% 30.31 in 10.0 mi Variable 3.5 mph - N/A   Clear
12:58 PM 44.4 °F 39.0 °F 8.8 °F 23% 30.30 in 10.0 mi NE 10.4 mph - N/A   Clear
1:58 PM 44.8 °F 41.0 °F 9.3 °F 24% 30.29 in 10.0 mi NNE 6.9 mph - N/A   Clear
2:58 PM 46.4 °F 41.9 °F 12.4 °F 25% 30.27 in 10.0 mi NNE 9.2 mph - N/A   Clear
3:58 PM 47.7 °F - 12.0 °F 24% 30.27 in 10.0 mi NE 11.5 mph - N/A   Clear
4:58 PM 48.6 °F - 11.3 °F 22% 30.24 in 10.0 mi ENE 11.5 mph - N/A   Clear
5:58 PM 48.6 °F - 11.3 °F 22% 30.22 in 10.0 mi NE 15.0 mph - N/A   Clear
6:58 PM 47.7 °F - 11.3 °F 23% 30.25 in 10.0 mi NE 13.8 mph - N/A   Clear
7:58 PM 47.1 °F - 13.3 °F 26% 30.25 in 10.0 mi NE 12.7 mph - N/A   Clear
8:58 PM 44.6 °F 39.2 °F 14.0 °F 29% 30.24 in 10.0 mi NE 10.4 mph - N/A   Clear
9:58 PM 41.4 °F 37.6 °F 14.2 °F 33% 30.24 in 10.0 mi NE 5.8 mph - N/A   Clear
10:58 PM 34.3 °F 29.2 °F 19.0 °F 54% 30.24 in 10.0 mi NNE 5.8 mph - N/A   Clear
11:58 PM 33.4 °F 26.6 °F 17.1 °F 51% 30.23 in 10.0 mi North 8.1 mph - N/A   Clear